Location: D�derode
(51.8092°N, 10.1065°E)
Time: 01:57:37
(UTC+00:00)

Cosmos 1943 - Visible Passes

Search period start: 15 April 2021 00:00
Search period end: 25 April 2021 00:00
Orbit: 835 x 848 km, 71.0° (Epoch: 14 April)

Date Brightness Start Highest point End Pass type
(mag) Time Alt. Az. Time Alt. Az. Time Alt. Az.
15 Apr 5.5 20:01:13 10° N 20:04:10 14° NNE 20:07:06 10° NE visible
15 Apr 4.2 21:44:42 10° NNW 21:49:55 37° NE 21:51:34 31° E visible
15 Apr 3.7 23:28:45 10° NW 23:33:23 47° W 23:33:23 47° W visible
16 Apr 5.5 19:46:10 10° N 19:49:01 14° NNE 19:51:53 10° NE visible
16 Apr 4.2 21:29:38 10° NNW 21:34:50 36° NE 21:36:45 28° E visible
16 Apr 3.6 23:13:39 10° NW 23:18:33 51° W 23:18:33 51° W visible
17 Apr 5.5 19:31:06 10° N 19:33:53 14° NNE 19:36:40 10° NE visible
17 Apr 4.3 21:14:35 10° NNW 21:19:44 35° NE 21:21:57 26° E visible
17 Apr 3.5 22:58:34 10° NW 23:03:45 54° W 23:03:45 54° W visible
18 Apr 5.5 19:16:03 10° N 19:18:45 13° NNE 19:21:26 10° NE visible
18 Apr 4.3 20:59:31 10° NNW 21:04:38 34° NE 21:07:11 23° E visible
18 Apr 3.3 22:43:29 10° NW 22:48:59 58° WSW 22:48:59 58° WSW visible
19 Apr 5.4 19:01:00 10° N 19:03:37 13° NNE 19:06:14 10° NE visible
19 Apr 4.4 20:44:28 10° NNW 20:49:32 33° NE 20:52:26 21° E visible
19 Apr 3.2 22:28:24 10° NW 22:33:57 60° WSW 22:34:14 60° SW visible
20 Apr 5.5 00:15:33 10° W 00:16:02 10° W 00:16:02 10° W visible
20 Apr 4.4 20:29:24 10° NNW 20:34:26 32° NE 20:37:42 18° E visible
20 Apr 3.2 22:13:19 10° NW 22:18:54 63° WSW 22:19:30 59° SSW visible
21 Apr 5.4 00:00:05 10° WNW 00:01:18 11° W 00:01:18 11° W visible
21 Apr 4.4 20:14:21 10° NNW 20:19:20 31° NE 20:22:59 16° E visible
21 Apr 3.2 21:58:15 10° NW 22:03:50 66° WSW 22:04:48 56° SSW visible
21 Apr 5.4 23:44:43 10° WNW 23:46:36 12° W 23:46:36 12° W visible
22 Apr 4.5 19:59:18 10° NNW 20:04:13 30° NE 20:08:18 14° E visible
22 Apr 3.2 21:43:09 10° NW 21:48:46 69° WSW 21:50:07 51° S visible
22 Apr 5.3 23:29:25 10° WNW 23:31:46 13° W 23:31:55 13° W visible
23 Apr 4.5 19:44:14 10° NNW 19:49:07 29° NE 19:53:39 11° E visible
23 Apr 3.2 21:28:05 10° NNW 21:33:43 72° WSW 21:35:27 45° S visible
23 Apr 5.3 23:14:08 10° WNW 23:16:46 13° W 23:17:16 13° WSW visible
24 Apr 4.5 19:29:11 10° NNW 19:34:01 28° NE 19:38:51 10° E visible
24 Apr 3.2 21:13:00 10° NNW 21:18:39 75° WSW 21:20:50 39° SSE visible
24 Apr 5.2 22:58:53 10° WNW 23:01:44 14° W 23:02:39 14° WSW visible
